DateTime,Voltage,Setpoint_Voltage,VVC_ClosedLoop_Enabled,Real_Power
 03/09/2018 00:00:00,32.58,33.0,1,13.81
 03/09/2018 00:15:00,32.58,33.0,1,13.81
 03/09/2018 00:30:00,32.58,33.0,1,13.81
 03/09/2018 00:45:00,32.58,33.0,1,13.81
 03/09/2018 01:00:00,32.58,33.0,1,13.81
 03/09/2018 01:15:00,32.58,33.0,1,13.81
 03/09/2018 01:30:00,32.58,33.0,1,13.81
 03/09/2018 01:45:00,32.58,33.0,1,13.81
 03/09/2018 02:00:00,32.58,33.0,1,13.81
 03/09/2018 02:15:00,32.58,33.0,1,13.81
 03/09/2018 02:30:00,32.58,33.0,1,13.81
 03/09/2018 02:45:00,32.58,33.0,1,13.81
 03/09/2018 03:00:00,32.58,33.0,1,13.81
 03/09/2018 03:15:00,32.58,33.0,1,13.81
 03/09/2018 03:30:00,32.58,33.0,1,13.81
 03/09/2018 03:45:00,32.58,33.0,1,13.81
 03/09/2018 04:00:00,32.58,33.0,1,13.81
 03/09/2018 04:15:00,32.58,33.0,1,13.81
 03/09/2018 04:30:00,32.58,33.0,1,13.81
 03/09/2018 04:45:00,32.58,33.0,1,13.81
 03/09/2018 05:00:00,32.58,33.0,1,13.81
 03/09/2018 05:15:00,32.58,33.0,1,13.81
 03/09/2018 05:30:00,32.58,33.0,1,13.81
 03/09/2018 05:45:00,32.58,33.0,1,13.81
 03/09/2018 06:00:00,32.58,33.0,1,13.81
 03/09/2018 06:15:00,32.58,33.0,1,13.81
 03/09/2018 06:30:00,32.58,33.0,1,13.81
 03/09/2018 06:45:00,32.58,33.0,1,13.81
 03/09/2018 07:00:00,32.58,33.0,1,13.81
 03/09/2018 07:15:00,32.58,33.0,1,13.81
 03/09/2018 07:30:00,32.58,33.0,1,13.81
 03/09/2018 07:45:00,32.58,33.0,1,13.81
 03/09/2018 08:00:00,32.58,33.0,1,13.81
 03/09/2018 08:15:00,32.58,33.0,1,13.81
 03/09/2018 08:30:00,32.58,33.0,1,13.81
 03/09/2018 08:45:00,32.63,33.0,1,13.81
 03/09/2018 09:00:00,32.81,33.0,1,13.81
 03/09/2018 09:15:00,32.8,33.0,1,22.04
 03/09/2018 09:30:00,32.76,33.0,1,23.76
 03/09/2018 09:45:00,18.55,33.0,1,12.56
 03/09/2018 10:00:00,0.0,33.0,1,0.0
 03/09/2018 10:15:00,0.0,33.0,1,0.0
 03/09/2018 10:30:00,0.0,33.0,1,0.0
 03/09/2018 10:45:00,0.0,33.0,1,0.0
 03/09/2018 11:00:00,0.0,33.0,1,0.0
 03/09/2018 11:15:00,0.0,33.0,1,0.0
 03/09/2018 11:30:00,0.0,33.0,1,0.0
 03/09/2018 11:45:00,0.0,33.0,1,0.0
 03/09/2018 12:00:00,0.0,33.0,1,0.0
 03/09/2018 12:15:00,0.0,33.0,1,0.0
 03/09/2018 12:30:00,0.0,33.0,1,0.0
 03/09/2018 12:45:00,0.0,33.0,1,0.0
 03/09/2018 13:00:00,0.0,33.0,1,0.0
 03/09/2018 13:15:00,0.0,33.0,1,0.0
 03/09/2018 13:30:00,0.0,33.0,1,0.0
 03/09/2018 13:45:00,0.0,33.0,1,0.0
 03/09/2018 14:00:00,0.0,33.0,1,0.0
 03/09/2018 14:15:00,0.0,33.0,1,0.0
 03/09/2018 14:30:00,0.0,33.0,1,0.0
 03/09/2018 14:45:00,0.0,33.0,1,0.0
 03/09/2018 15:00:00,0.0,33.0,1,0.0
 03/09/2018 15:15:00,0.0,33.0,1,0.0
 03/09/2018 15:30:00,0.0,33.0,1,0.0
 03/09/2018 15:45:00,0.0,33.0,1,0.0
 03/09/2018 16:00:00,0.0,33.0,1,0.0
 03/09/2018 16:15:00,0.0,33.0,1,0.0
 03/09/2018 16:30:00,0.0,33.0,1,0.0
 03/09/2018 16:45:00,0.0,33.0,1,0.0
 03/09/2018 17:00:00,0.0,33.0,1,0.0
 03/09/2018 17:15:00,0.0,33.0,1,0.0
 03/09/2018 17:30:00,0.0,33.0,1,0.0
 03/09/2018 17:45:00,0.0,33.0,1,0.0
 03/09/2018 18:00:00,0.0,33.0,1,0.0
 03/09/2018 18:15:00,0.0,33.0,1,0.0
 03/09/2018 18:30:00,0.0,33.0,1,0.0
 03/09/2018 18:45:00,0.0,33.0,1,0.0
 03/09/2018 19:00:00,0.0,33.0,1,0.0
 03/09/2018 19:15:00,0.0,33.0,1,0.0
 03/09/2018 19:30:00,0.0,33.0,1,0.0
 03/09/2018 19:45:00,0.0,33.0,1,0.0
 03/09/2018 20:00:00,0.0,33.0,1,0.0
 03/09/2018 20:15:00,0.0,33.0,1,0.0
 03/09/2018 20:30:00,0.0,33.0,1,0.0
 03/09/2018 20:45:00,0.0,33.0,1,0.0
 03/09/2018 21:00:00,0.0,33.0,1,0.0
 03/09/2018 21:15:00,0.0,33.0,1,0.0
 03/09/2018 21:30:00,0.0,33.0,1,0.0
 03/09/2018 21:45:00,0.0,33.0,1,0.0
 03/09/2018 22:00:00,0.0,33.0,1,0.0
 03/09/2018 22:15:00,0.0,33.0,1,0.0
 03/09/2018 22:30:00,0.0,33.0,1,0.0
 03/09/2018 22:45:00,0.0,33.0,1,0.0
 03/09/2018 23:00:00,0.0,33.0,1,0.0
 03/09/2018 23:15:00,0.0,33.0,1,0.0
 03/09/2018 23:30:00,0.0,33.0,1,0.0
 03/09/2018 23:45:00,0.0,33.0,1,0.0
 04/09/2018 00:00:00,0.0,33.0,1,0.0
 04/09/2018 00:15:00,0.0,33.0,1,0.0
 04/09/2018 00:30:00,0.0,33.0,1,0.0
 04/09/2018 00:45:00,0.0,33.0,1,0.0
 04/09/2018 01:00:00,0.0,33.0,1,0.0
 04/09/2018 01:15:00,0.0,33.0,1,0.0
 04/09/2018 01:30:00,0.0,33.0,1,0.0
 04/09/2018 01:45:00,0.0,33.0,1,0.0
 04/09/2018 02:00:00,0.0,33.0,1,0.0
 04/09/2018 02:15:00,0.0,33.0,1,0.0
 04/09/2018 02:30:00,0.0,33.0,1,0.0
 04/09/2018 02:45:00,0.0,33.0,1,0.0
 04/09/2018 03:00:00,0.0,33.0,1,0.0
 04/09/2018 03:15:00,0.0,33.0,1,0.0
 04/09/2018 03:30:00,0.0,33.0,1,0.0
 04/09/2018 03:45:00,0.0,33.0,1,0.0
 04/09/2018 04:00:00,0.0,33.0,1,0.0
 04/09/2018 04:15:00,0.0,33.0,1,0.0
 04/09/2018 04:30:00,0.0,33.0,1,0.0
 04/09/2018 04:45:00,0.0,33.0,1,0.0
 04/09/2018 05:00:00,0.0,33.0,1,0.0
 04/09/2018 05:15:00,0.0,33.0,1,0.0
 04/09/2018 05:30:00,0.0,33.0,1,0.0
 04/09/2018 05:45:00,0.0,33.0,1,0.0
 04/09/2018 06:00:00,0.0,33.0,1,0.0
 04/09/2018 06:15:00,0.0,33.0,1,0.0
 04/09/2018 06:30:00,0.0,33.0,1,0.0
 04/09/2018 06:45:00,0.0,33.0,1,0.0
 04/09/2018 07:00:00,0.0,33.0,1,0.0
 04/09/2018 07:15:00,0.0,33.0,1,0.0
 04/09/2018 07:30:00,0.0,33.0,1,0.0
 04/09/2018 07:45:00,0.0,33.0,1,0.0
 04/09/2018 08:00:00,0.0,33.0,1,0.0
 04/09/2018 08:15:00,0.0,33.0,1,0.0
 04/09/2018 08:30:00,0.0,33.0,1,0.0
 04/09/2018 08:45:00,0.0,33.0,1,0.0
 04/09/2018 09:00:00,0.0,33.0,1,0.0
 04/09/2018 09:15:00,0.0,33.0,1,0.0
 04/09/2018 09:30:00,0.0,33.0,1,0.0
 04/09/2018 09:45:00,0.0,33.0,1,0.0
 04/09/2018 10:00:00,0.0,33.0,1,0.0
 04/09/2018 10:15:00,0.0,33.0,1,0.0
 04/09/2018 10:30:00,0.0,33.0,1,0.0
 04/09/2018 10:45:00,0.0,33.0,1,0.0
 04/09/2018 11:00:00,0.0,33.0,1,0.0
 04/09/2018 11:15:00,0.0,33.0,1,0.0
 04/09/2018 11:30:00,0.0,33.0,1,0.0
 04/09/2018 11:45:00,0.0,33.0,1,0.0
 04/09/2018 12:00:00,0.0,33.0,1,0.0
 04/09/2018 12:15:00,0.0,33.0,1,0.0
 04/09/2018 12:30:00,0.0,33.0,1,0.0
 04/09/2018 12:45:00,0.0,33.0,1,0.0
 04/09/2018 13:00:00,0.0,33.0,1,0.0
 04/09/2018 13:15:00,0.0,33.0,1,0.0
 04/09/2018 13:30:00,0.0,33.0,1,0.0
 04/09/2018 13:45:00,0.0,33.0,1,0.0
 04/09/2018 14:00:00,0.0,33.0,1,0.0
 04/09/2018 14:15:00,0.0,33.0,1,0.0
 04/09/2018 14:30:00,0.0,33.0,1,0.0
 04/09/2018 14:45:00,0.0,33.0,1,0.0
 04/09/2018 15:00:00,0.0,33.0,1,0.0
 04/09/2018 15:15:00,0.0,33.0,1,0.0
 04/09/2018 15:30:00,0.0,33.0,1,0.0
 04/09/2018 15:45:00,0.0,33.0,1,0.0
 04/09/2018 16:00:00,0.0,33.0,1,0.0
 04/09/2018 16:15:00,0.0,33.0,1,0.0
 04/09/2018 16:30:00,0.0,33.0,1,0.0
 04/09/2018 16:45:00,0.0,33.0,1,0.0
 04/09/2018 17:00:00,0.0,33.0,1,0.0
 04/09/2018 17:15:00,0.0,33.0,1,0.0
 04/09/2018 17:30:00,0.0,33.0,1,0.0
 04/09/2018 17:45:00,0.0,33.0,1,0.0
 04/09/2018 18:00:00,0.0,33.0,1,0.0
 04/09/2018 18:15:00,0.0,33.0,1,0.0
 04/09/2018 18:30:00,0.0,33.0,1,0.0
 04/09/2018 18:45:00,0.0,33.0,1,0.0
 04/09/2018 19:00:00,0.0,33.0,1,0.0
 04/09/2018 19:15:00,0.0,33.0,1,0.0
 04/09/2018 19:30:00,0.0,33.0,1,0.0
 04/09/2018 19:45:00,0.0,33.0,1,0.0
 04/09/2018 20:00:00,0.0,33.0,1,0.0
 04/09/2018 20:15:00,0.0,33.0,1,0.0
 04/09/2018 20:30:00,0.0,33.0,1,0.0
 04/09/2018 20:45:00,0.0,33.0,1,0.0
 04/09/2018 21:00:00,0.0,33.0,1,0.0
 04/09/2018 21:15:00,0.0,33.0,1,0.0
 04/09/2018 21:30:00,0.0,33.0,1,0.0
 04/09/2018 21:45:00,0.0,33.0,1,0.0
 04/09/2018 22:00:00,0.0,33.0,1,0.0
 04/09/2018 22:15:00,0.0,33.0,1,0.0
 04/09/2018 22:30:00,0.0,33.0,1,0.0
 04/09/2018 22:45:00,0.0,33.0,1,0.0
 04/09/2018 23:00:00,0.0,33.0,1,0.0
 04/09/2018 23:15:00,0.0,33.0,1,0.0
 04/09/2018 23:30:00,0.0,33.0,1,0.0
 04/09/2018 23:45:00,0.0,33.0,1,0.0
 05/09/2018 00:00:00,0.0,33.0,1,0.0
 05/09/2018 00:15:00,0.0,33.0,1,0.0
 05/09/2018 00:30:00,0.0,33.0,1,0.0
 05/09/2018 00:45:00,0.0,33.0,1,0.0
 05/09/2018 01:00:00,0.0,33.0,1,0.0
 05/09/2018 01:15:00,0.0,33.0,1,0.0
 05/09/2018 01:30:00,0.0,33.0,1,0.0
 05/09/2018 01:45:00,0.0,33.0,1,0.0
 05/09/2018 02:00:00,0.0,33.0,1,0.0
 05/09/2018 02:15:00,0.0,33.0,1,0.0
 05/09/2018 02:30:00,0.0,33.0,1,0.0
 05/09/2018 02:45:00,0.0,33.0,1,0.0
 05/09/2018 03:00:00,0.0,33.0,1,0.0
 05/09/2018 03:15:00,0.0,33.0,1,0.0
 05/09/2018 03:30:00,0.0,33.0,1,0.0
 05/09/2018 03:45:00,0.0,33.0,1,0.0
 05/09/2018 04:00:00,0.0,33.0,1,0.0
 05/09/2018 04:15:00,0.0,33.0,1,0.0
 05/09/2018 04:30:00,0.0,33.0,1,0.0
 05/09/2018 04:45:00,0.0,33.0,1,0.0
 05/09/2018 05:00:00,0.0,33.0,1,0.0
 05/09/2018 05:15:00,0.0,33.0,1,0.0
 05/09/2018 05:30:00,0.0,33.0,1,0.0
 05/09/2018 05:45:00,0.0,33.0,1,0.0
 05/09/2018 06:00:00,0.0,33.0,1,0.0
 05/09/2018 06:15:00,0.0,33.0,1,0.0
 05/09/2018 06:30:00,0.0,33.0,1,0.0
 05/09/2018 06:45:00,0.0,33.0,1,0.0
 05/09/2018 07:00:00,0.0,33.0,1,0.0
 05/09/2018 07:15:00,0.0,33.0,1,0.0
 05/09/2018 07:30:00,0.0,33.0,1,0.0
 05/09/2018 07:45:00,0.0,33.0,1,0.0
 05/09/2018 08:00:00,0.0,33.0,1,0.0
 05/09/2018 08:15:00,0.0,33.0,1,0.0
 05/09/2018 08:30:00,0.0,33.0,1,0.0
 05/09/2018 08:45:00,0.0,33.0,1,0.0
 05/09/2018 09:00:00,0.0,33.0,1,0.0
 05/09/2018 09:15:00,0.0,33.0,1,0.0
 05/09/2018 09:30:00,0.0,33.0,1,0.0
 05/09/2018 09:45:00,0.0,33.0,1,0.0
 05/09/2018 10:00:00,0.0,33.0,1,0.0
 05/09/2018 10:15:00,0.0,33.0,1,0.0
 05/09/2018 10:30:00,0.0,33.0,1,0.0
 05/09/2018 10:45:00,0.0,33.0,1,0.0
 05/09/2018 11:00:00,0.0,33.0,1,0.0
 05/09/2018 11:15:00,0.0,33.0,1,0.0
 05/09/2018 11:30:00,0.0,33.0,1,0.0
 05/09/2018 11:45:00,0.0,33.0,1,0.0
 05/09/2018 12:00:00,0.0,33.0,1,0.0
 05/09/2018 12:15:00,0.0,33.0,1,0.0
 05/09/2018 12:30:00,0.0,33.0,1,0.0
 05/09/2018 12:45:00,0.0,33.0,1,0.0
 05/09/2018 13:00:00,0.0,33.0,1,0.0
 05/09/2018 13:15:00,0.0,33.0,1,0.0
 05/09/2018 13:30:00,0.0,33.0,1,0.0
 05/09/2018 13:45:00,0.0,33.0,1,0.0
 05/09/2018 14:00:00,0.0,33.0,1,0.0
 05/09/2018 14:15:00,0.0,33.0,1,0.0
 05/09/2018 14:30:00,0.0,33.0,1,0.0
 05/09/2018 14:45:00,0.0,33.0,1,0.0
 05/09/2018 15:00:00,0.0,33.0,1,0.0
 05/09/2018 15:15:00,0.0,33.0,1,0.0
 05/09/2018 15:30:00,0.0,33.0,1,0.0
 05/09/2018 15:45:00,0.0,33.0,1,0.0
 05/09/2018 16:00:00,0.0,33.0,1,0.0
 05/09/2018 16:15:00,0.0,33.0,1,0.0
 05/09/2018 16:30:00,0.0,33.0,1,0.0
 05/09/2018 16:45:00,0.0,33.0,1,0.0
 05/09/2018 17:00:00,0.0,33.0,1,0.0
 05/09/2018 17:15:00,0.0,33.0,1,0.0
 05/09/2018 17:30:00,0.0,33.0,1,0.0
 05/09/2018 17:45:00,0.0,33.0,1,0.0
 05/09/2018 18:00:00,0.0,33.0,1,0.0
 05/09/2018 18:15:00,0.0,33.0,1,0.0
 05/09/2018 18:30:00,0.0,33.0,1,0.0
 05/09/2018 18:45:00,0.0,33.0,1,0.0
 05/09/2018 19:00:00,0.0,33.0,1,0.0
 05/09/2018 19:15:00,0.0,33.0,1,0.0
 05/09/2018 19:30:00,0.0,33.0,1,0.0
 05/09/2018 19:45:00,0.0,33.0,1,0.0
 05/09/2018 20:00:00,0.0,33.0,1,0.0
 05/09/2018 20:15:00,0.0,33.0,1,0.0
 05/09/2018 20:30:00,0.0,33.0,1,0.0
 05/09/2018 20:45:00,0.0,33.0,1,0.0
 05/09/2018 21:00:00,0.0,33.0,1,0.0
 05/09/2018 21:15:00,0.0,33.0,1,0.0
 05/09/2018 21:30:00,0.0,33.0,1,0.0
 05/09/2018 21:45:00,0.0,33.0,1,0.0
 05/09/2018 22:00:00,0.0,33.0,1,0.0
 05/09/2018 22:15:00,0.0,33.0,1,0.0
 05/09/2018 22:30:00,0.0,33.0,1,0.0
 05/09/2018 22:45:00,0.0,33.0,1,0.0
 05/09/2018 23:00:00,0.0,33.0,1,0.0
 05/09/2018 23:15:00,0.0,33.0,1,0.0
 05/09/2018 23:30:00,0.0,33.0,1,0.0
 05/09/2018 23:45:00,0.0,33.0,1,0.0
 06/09/2018 00:00:00,0.0,33.0,1,0.0
 06/09/2018 00:15:00,0.0,33.0,1,0.0
 06/09/2018 00:30:00,0.0,33.0,1,0.0
 06/09/2018 00:45:00,0.0,33.0,1,0.0
 06/09/2018 01:00:00,0.0,33.0,1,0.0
 06/09/2018 01:15:00,0.0,33.0,1,0.0
 06/09/2018 01:30:00,0.0,33.0,1,0.0
 06/09/2018 01:45:00,0.0,33.0,1,0.0
 06/09/2018 02:00:00,0.0,33.0,1,0.0
 06/09/2018 02:15:00,0.0,33.0,1,0.0
 06/09/2018 02:30:00,0.0,33.0,1,0.0
 06/09/2018 02:45:00,0.0,33.0,1,0.0
 06/09/2018 03:00:00,0.0,33.0,1,0.0
 06/09/2018 03:15:00,0.0,33.0,1,0.0
 06/09/2018 03:30:00,0.0,33.0,1,0.0
 06/09/2018 03:45:00,0.0,33.0,1,0.0
 06/09/2018 04:00:00,0.0,33.0,1,0.0
 06/09/2018 04:15:00,0.0,33.0,1,0.0
 06/09/2018 04:30:00,0.0,33.0,1,0.0
 06/09/2018 04:45:00,0.0,33.0,1,0.0
 06/09/2018 05:00:00,0.0,33.0,1,0.0
 06/09/2018 05:15:00,0.0,33.0,1,0.0
 06/09/2018 05:30:00,0.0,33.0,1,0.0
 06/09/2018 05:45:00,0.0,33.0,1,0.0
 06/09/2018 06:00:00,0.0,33.0,1,0.0
 06/09/2018 06:15:00,0.0,33.0,1,0.0
 06/09/2018 06:30:00,0.0,33.0,1,0.0
 06/09/2018 06:45:00,0.0,33.0,1,0.0
 06/09/2018 07:00:00,0.0,33.0,1,0.0
 06/09/2018 07:15:00,0.0,33.0,1,0.0
 06/09/2018 07:30:00,0.0,33.0,1,0.0
 06/09/2018 07:45:00,0.0,33.0,1,0.0
 06/09/2018 08:00:00,0.0,33.0,1,0.0
 06/09/2018 08:15:00,0.0,33.0,1,0.0
 06/09/2018 08:30:00,0.0,33.0,1,0.0
 06/09/2018 08:45:00,0.0,33.0,1,0.0
 06/09/2018 09:00:00,0.0,33.0,1,0.0
 06/09/2018 09:15:00,0.0,33.0,1,0.0
 06/09/2018 09:30:00,0.0,33.0,1,0.0
 06/09/2018 09:45:00,0.0,33.0,1,0.0
 06/09/2018 10:00:00,0.0,33.0,1,0.0
 06/09/2018 10:15:00,0.0,33.0,1,0.0
 06/09/2018 10:30:00,0.0,33.0,1,0.0
 06/09/2018 10:45:00,0.0,33.0,1,0.0
 06/09/2018 11:00:00,0.0,33.0,1,0.0
 06/09/2018 11:15:00,0.0,33.0,1,0.0
 06/09/2018 11:30:00,0.0,33.0,1,0.0
 06/09/2018 11:45:00,0.0,33.0,1,0.0
 06/09/2018 12:00:00,0.0,33.0,1,0.0
 06/09/2018 12:15:00,0.0,33.0,1,0.0
 06/09/2018 12:30:00,0.0,33.0,1,0.0
 06/09/2018 12:45:00,0.0,33.0,1,0.0
 06/09/2018 13:00:00,0.0,33.0,1,0.0
 06/09/2018 13:15:00,0.0,33.0,1,0.0
 06/09/2018 13:30:00,0.0,33.0,1,0.0
 06/09/2018 13:45:00,0.0,33.0,1,0.0
 06/09/2018 14:00:00,0.0,33.0,1,0.0
 06/09/2018 14:15:00,0.0,33.0,1,0.0
 06/09/2018 14:30:00,0.0,33.0,1,0.0
 06/09/2018 14:45:00,0.0,33.0,1,0.0
 06/09/2018 15:00:00,0.0,33.0,1,0.0
 06/09/2018 15:15:00,0.0,33.0,1,0.0
 06/09/2018 15:30:00,0.0,33.0,1,0.0
 06/09/2018 15:45:00,0.0,33.0,1,0.0
 06/09/2018 16:00:00,0.0,33.0,1,0.0
 06/09/2018 16:15:00,0.0,33.0,1,0.0
 06/09/2018 16:30:00,0.0,33.0,1,0.0
 06/09/2018 16:45:00,0.0,33.0,1,0.0
 06/09/2018 17:00:00,0.0,33.0,1,0.0
 06/09/2018 17:15:00,0.0,33.0,1,0.0
 06/09/2018 17:30:00,0.0,33.0,1,0.0
 06/09/2018 17:45:00,0.0,33.0,1,0.0
 06/09/2018 18:00:00,0.0,33.0,1,0.0
 06/09/2018 18:15:00,0.0,33.0,1,0.0
 06/09/2018 18:30:00,0.0,33.0,1,0.0
 06/09/2018 18:45:00,0.0,33.0,1,0.0
 06/09/2018 19:00:00,0.0,33.0,1,0.0
 06/09/2018 19:15:00,0.0,33.0,1,0.0
 06/09/2018 19:30:00,0.0,33.0,1,0.0
 06/09/2018 19:45:00,0.0,33.0,1,0.0
 06/09/2018 20:00:00,0.0,33.0,1,0.0
 06/09/2018 20:15:00,0.0,33.0,1,0.0
 06/09/2018 20:30:00,0.0,33.0,1,0.0
 06/09/2018 20:45:00,0.0,33.0,1,0.0
 06/09/2018 21:00:00,0.0,33.0,1,0.0
 06/09/2018 21:15:00,0.0,33.0,1,0.0
 06/09/2018 21:30:00,0.0,33.0,1,0.0
 06/09/2018 21:45:00,0.0,33.0,1,0.0
 06/09/2018 22:00:00,0.0,33.0,1,0.0
 06/09/2018 22:15:00,0.0,33.0,1,0.0
 06/09/2018 22:30:00,0.0,33.0,1,0.0
 06/09/2018 22:45:00,0.0,33.0,1,0.0
 06/09/2018 23:00:00,0.0,33.0,1,0.0
 06/09/2018 23:15:00,0.0,33.0,1,0.0
 06/09/2018 23:30:00,0.0,33.0,1,0.0
 06/09/2018 23:45:00,0.0,33.0,1,0.0
 07/09/2018 00:00:00,0.0,33.0,1,0.0
 07/09/2018 00:15:00,0.0,33.0,1,0.0
 07/09/2018 00:30:00,0.0,33.0,1,0.0
 07/09/2018 00:45:00,0.0,33.0,1,0.0
 07/09/2018 01:00:00,0.0,33.0,1,0.0
 07/09/2018 01:15:00,0.0,33.0,1,0.0
 07/09/2018 01:30:00,0.0,33.0,1,0.0
 07/09/2018 01:45:00,0.0,33.0,1,0.0
 07/09/2018 02:00:00,0.0,33.0,1,0.0
 07/09/2018 02:15:00,0.0,33.0,1,0.0
 07/09/2018 02:30:00,0.0,33.0,1,0.0
 07/09/2018 02:45:00,0.0,33.0,1,0.0
 07/09/2018 03:00:00,0.0,33.0,1,0.0
 07/09/2018 03:15:00,0.0,33.0,1,0.0
 07/09/2018 03:30:00,0.0,33.0,1,0.0
 07/09/2018 03:45:00,0.0,33.0,1,0.0
 07/09/2018 04:00:00,0.0,33.0,1,0.0
 07/09/2018 04:15:00,0.0,33.0,1,0.0
 07/09/2018 04:30:00,0.0,33.0,1,0.0
 07/09/2018 04:45:00,0.0,33.0,1,0.0
 07/09/2018 05:00:00,0.0,33.0,1,0.0
 07/09/2018 05:15:00,0.0,33.0,1,0.0
 07/09/2018 05:30:00,0.0,33.0,1,0.0
 07/09/2018 05:45:00,0.0,33.0,1,0.0
 07/09/2018 06:00:00,0.0,33.0,1,0.0
 07/09/2018 06:15:00,0.0,33.0,1,0.0
 07/09/2018 06:30:00,0.0,33.0,1,0.0
 07/09/2018 06:45:00,0.0,33.0,1,0.0
 07/09/2018 07:00:00,0.0,33.0,1,0.0
 07/09/2018 07:15:00,0.0,33.0,1,0.0
 07/09/2018 07:30:00,0.0,33.0,1,0.0
 07/09/2018 07:45:00,0.0,33.0,1,0.0
 07/09/2018 08:00:00,0.0,33.0,1,0.0
 07/09/2018 08:15:00,0.0,33.0,1,0.0
 07/09/2018 08:30:00,0.0,33.0,1,0.0
 07/09/2018 08:45:00,0.0,33.0,1,0.0
 07/09/2018 09:00:00,0.0,33.0,1,0.0
 07/09/2018 09:15:00,0.0,33.0,1,0.0
 07/09/2018 09:30:00,0.0,33.0,1,0.0
 07/09/2018 09:45:00,0.0,33.0,1,0.0
 07/09/2018 10:00:00,0.0,33.0,1,0.0
 07/09/2018 10:15:00,0.0,33.0,1,0.0
 07/09/2018 10:30:00,0.0,33.0,1,0.0
 07/09/2018 10:45:00,0.0,33.0,1,0.0
 07/09/2018 11:00:00,0.0,33.0,1,0.0
 07/09/2018 11:15:00,0.0,33.0,1,0.0
 07/09/2018 11:30:00,0.0,33.0,1,0.0
 07/09/2018 11:45:00,0.0,33.0,1,0.0
 07/09/2018 12:00:00,0.0,33.0,1,0.0
 07/09/2018 12:15:00,0.0,33.0,1,0.0
 07/09/2018 12:30:00,0.0,33.0,1,0.0
 07/09/2018 12:45:00,0.0,33.0,1,0.0
 07/09/2018 13:00:00,5.3,33.0,1,0.0
 07/09/2018 13:15:00,2.13,33.0,1,0.0
 07/09/2018 13:30:00,0.0,33.0,1,0.0
 07/09/2018 13:45:00,0.0,33.0,1,0.0
 07/09/2018 14:00:00,0.0,33.0,1,0.0
 07/09/2018 14:15:00,0.0,33.0,1,0.0
 07/09/2018 14:30:00,0.0,33.0,1,0.0
 07/09/2018 14:45:00,0.0,33.0,1,0.0
 07/09/2018 15:00:00,0.0,33.0,1,0.0
 07/09/2018 15:15:00,0.0,33.0,1,0.0
 07/09/2018 15:30:00,0.0,33.0,1,0.0
 07/09/2018 15:45:00,0.0,33.0,1,0.0
 07/09/2018 16:00:00,29.79,33.0,1,0.0
 07/09/2018 16:15:00,32.66,33.0,1,0.0
 07/09/2018 16:30:00,32.83,33.0,1,0.0
 07/09/2018 16:45:00,32.69,33.0,1,0.0
 07/09/2018 17:00:00,32.62,33.0,1,0.0
 07/09/2018 17:15:00,32.66,33.0,1,0.0
 07/09/2018 17:30:00,32.83,33.0,1,0.0
 07/09/2018 17:45:00,33.07,33.0,1,0.0
 07/09/2018 18:00:00,33.07,33.0,1,0.0
 07/09/2018 18:15:00,33.1,33.0,1,0.0
 07/09/2018 18:30:00,32.99,33.0,1,0.0
 07/09/2018 18:45:00,33.14,33.0,1,0.0
 07/09/2018 19:00:00,33.12,33.0,1,0.0
 07/09/2018 19:15:00,33.16,33.0,1,0.0
 07/09/2018 19:30:00,33.18,33.0,1,0.0
 07/09/2018 19:45:00,33.11,33.0,1,0.0
 07/09/2018 20:00:00,33.0,33.0,1,0.0
 07/09/2018 20:15:00,33.03,33.0,1,0.0
 07/09/2018 20:30:00,33.14,33.0,1,0.0
 07/09/2018 20:45:00,33.24,33.0,1,0.0
 07/09/2018 21:00:00,33.34,33.0,1,0.0
 07/09/2018 21:15:00,33.38,33.0,1,0.0
 07/09/2018 21:30:00,33.43,33.0,1,0.0
 07/09/2018 21:45:00,33.05,33.0,1,0.0
 07/09/2018 22:00:00,32.84,33.0,1,0.0
 07/09/2018 22:15:00,32.86,33.0,1,0.0
 07/09/2018 22:30:00,32.86,33.0,1,0.0
 07/09/2018 22:45:00,32.89,33.0,1,0.0
 07/09/2018 23:00:00,32.7,33.0,1,0.0
 07/09/2018 23:15:00,32.83,33.0,1,0.0
 07/09/2018 23:30:00,32.87,33.0,1,0.0
 07/09/2018 23:45:00,33.01,33.0,1,0.0
 08/09/2018 00:00:00,33.16,33.0,1,0.0
 08/09/2018 00:15:00,33.24,33.0,1,0.0
 08/09/2018 00:30:00,33.25,33.0,1,0.0
 08/09/2018 00:45:00,33.24,33.0,1,0.0
 08/09/2018 01:00:00,33.29,33.0,1,0.0
 08/09/2018 01:15:00,33.32,33.0,1,0.0
 08/09/2018 01:30:00,33.04,33.0,1,0.0
 08/09/2018 01:45:00,32.98,33.0,1,0.0
 08/09/2018 02:00:00,33.17,33.0,1,0.0
 08/09/2018 02:15:00,33.03,33.0,1,0.0
 08/09/2018 02:30:00,32.69,33.0,1,0.0
 08/09/2018 02:45:00,32.65,33.0,1,0.0
 08/09/2018 03:00:00,33.18,33.0,1,0.0
 08/09/2018 03:15:00,33.26,33.0,1,0.0
 08/09/2018 03:30:00,33.42,33.0,1,0.0
 08/09/2018 03:45:00,33.34,33.0,1,0.0
 08/09/2018 04:00:00,33.32,33.0,1,0.0
 08/09/2018 04:15:00,33.36,33.0,1,0.0
 08/09/2018 04:30:00,33.45,33.0,1,0.0
 08/09/2018 04:45:00,33.35,33.0,1,0.0
 08/09/2018 05:00:00,33.34,33.0,1,0.0
 08/09/2018 05:15:00,33.28,33.0,1,0.0
 08/09/2018 05:30:00,33.38,33.0,1,0.0
 08/09/2018 05:45:00,33.04,33.0,1,0.0
 08/09/2018 06:00:00,32.95,33.0,1,0.0
 08/09/2018 06:15:00,32.75,33.0,1,0.0
 08/09/2018 06:30:00,32.73,33.0,1,0.0
 08/09/2018 06:45:00,32.68,33.0,1,0.0
 08/09/2018 07:00:00,32.6,33.0,1,0.0
 08/09/2018 07:15:00,32.87,33.0,1,0.0
 08/09/2018 07:30:00,33.12,33.0,1,0.0
 08/09/2018 07:45:00,33.36,33.0,1,0.0
 08/09/2018 08:00:00,33.08,33.0,1,0.0
 08/09/2018 08:15:00,32.96,33.0,1,0.0
 08/09/2018 08:30:00,32.82,33.0,1,0.0
 08/09/2018 08:45:00,32.75,33.0,1,0.0
 08/09/2018 09:00:00,32.74,33.0,1,0.0
 08/09/2018 09:15:00,32.65,33.0,1,0.0
 08/09/2018 09:30:00,32.64,33.0,1,0.0
 08/09/2018 09:45:00,32.65,33.0,1,0.0
 08/09/2018 10:00:00,32.64,33.0,1,0.0
 08/09/2018 10:15:00,32.68,33.0,1,0.0
 08/09/2018 10:30:00,32.86,33.0,1,0.0
 08/09/2018 10:45:00,33.13,33.0,1,0.0
 08/09/2018 11:00:00,33.13,33.0,1,0.0
 08/09/2018 11:15:00,33.3,33.0,1,0.0
 08/09/2018 11:30:00,33.25,33.0,1,0.0
 08/09/2018 11:45:00,33.31,33.0,1,0.0
 08/09/2018 12:00:00,33.41,33.0,1,0.0
 08/09/2018 12:15:00,33.04,33.0,1,0.0
 08/09/2018 12:30:00,33.07,33.0,1,0.0
 08/09/2018 12:45:00,33.08,33.0,1,0.0
 08/09/2018 13:00:00,33.1,33.0,1,0.0
 08/09/2018 13:15:00,33.13,33.0,1,0.0
 08/09/2018 13:30:00,33.18,33.0,1,0.0
 08/09/2018 13:45:00,33.19,33.0,1,0.0
 08/09/2018 14:00:00,33.36,33.0,1,0.0
 08/09/2018 14:15:00,33.33,33.0,1,0.0
 08/09/2018 14:30:00,33.36,33.0,1,0.0
 08/09/2018 14:45:00,33.33,33.0,1,0.0
 08/09/2018 15:00:00,33.28,33.0,1,0.0
 08/09/2018 15:15:00,33.28,33.0,1,0.0
 08/09/2018 15:30:00,33.34,33.0,1,0.0
 08/09/2018 15:45:00,33.24,33.0,1,0.0
 08/09/2018 16:00:00,33.24,33.0,1,0.0
 08/09/2018 16:15:00,33.2,33.0,1,0.0
 08/09/2018 16:30:00,33.12,33.0,1,0.0
 08/09/2018 16:45:00,33.0,33.0,1,0.0
 08/09/2018 17:00:00,33.01,33.0,1,0.0
 08/09/2018 17:15:00,32.95,33.0,1,0.0
 08/09/2018 17:30:00,32.93,33.0,1,0.0
 08/09/2018 17:45:00,32.83,33.0,1,0.0
 08/09/2018 18:00:00,32.92,33.0,1,0.0
 08/09/2018 18:15:00,32.86,33.0,1,0.0
 08/09/2018 18:30:00,32.87,33.0,1,0.0
 08/09/2018 18:45:00,32.9,33.0,1,0.0
 08/09/2018 19:00:00,32.93,33.0,1,0.0
 08/09/2018 19:15:00,32.9,33.0,1,0.0
 08/09/2018 19:30:00,32.91,33.0,1,0.0
 08/09/2018 19:45:00,32.92,33.0,1,0.0
 08/09/2018 20:00:00,32.89,33.0,1,0.0
 08/09/2018 20:15:00,33.08,33.0,1,0.0
 08/09/2018 20:30:00,33.33,33.0,1,0.0
 08/09/2018 20:45:00,33.4,33.0,1,0.0
 08/09/2018 21:00:00,33.13,33.0,1,0.0
 08/09/2018 21:15:00,32.99,33.0,1,0.0
 08/09/2018 21:30:00,33.13,33.0,1,0.0
 08/09/2018 21:45:00,33.3,33.0,1,0.0
 08/09/2018 22:00:00,32.74,33.0,1,0.0
 08/09/2018 22:15:00,32.79,33.0,1,0.0
 08/09/2018 22:30:00,32.85,33.0,1,0.0
 08/09/2018 22:45:00,32.95,33.0,1,0.0
 08/09/2018 23:00:00,33.19,33.0,1,0.0
 08/09/2018 23:15:00,33.11,33.0,1,0.0
 08/09/2018 23:30:00,33.18,33.0,1,0.0
 08/09/2018 23:45:00,33.37,33.0,1,0.0
 09/09/2018 00:00:00,33.4,33.0,1,0.0
 09/09/2018 00:15:00,33.05,33.0,1,0.0
 09/09/2018 00:30:00,32.89,33.0,1,0.0
 09/09/2018 00:45:00,32.99,33.0,1,0.0
 09/09/2018 01:00:00,33.13,33.0,1,0.0
 09/09/2018 01:15:00,32.86,33.0,1,0.0
 09/09/2018 01:30:00,32.96,33.0,1,0.0
 09/09/2018 01:45:00,33.05,33.0,1,0.0
 09/09/2018 02:00:00,33.2,33.0,1,0.0
 09/09/2018 02:15:00,33.13,33.0,1,0.0
 09/09/2018 02:30:00,33.22,33.0,1,0.0
 09/09/2018 02:45:00,33.17,33.0,1,0.0
 09/09/2018 03:00:00,33.35,33.0,1,0.0
 09/09/2018 03:15:00,33.09,33.0,1,0.0
 09/09/2018 03:30:00,33.08,33.0,1,0.0
 09/09/2018 03:45:00,33.09,33.0,1,0.0
 09/09/2018 04:00:00,33.16,33.0,1,0.0
 09/09/2018 04:15:00,33.11,33.0,1,0.0
 09/09/2018 04:30:00,33.06,33.0,1,0.0
 09/09/2018 04:45:00,33.11,33.0,1,0.0
 09/09/2018 05:00:00,33.18,33.0,1,0.0
 09/09/2018 05:15:00,33.14,33.0,1,0.0
 09/09/2018 05:30:00,33.06,33.0,1,0.0
 09/09/2018 05:45:00,33.06,33.0,1,0.0
 09/09/2018 06:00:00,33.05,33.0,1,0.0
 09/09/2018 06:15:00,32.93,33.0,1,0.0
 09/09/2018 06:30:00,32.88,33.0,1,0.0
 09/09/2018 06:45:00,32.84,33.0,1,0.0
 09/09/2018 07:00:00,32.76,33.0,1,0.0
 09/09/2018 07:15:00,32.78,33.0,1,0.0
 09/09/2018 07:30:00,33.01,33.0,1,0.0
 09/09/2018 07:45:00,32.96,33.0,1,0.0
 09/09/2018 08:00:00,33.03,33.0,1,0.0
 09/09/2018 08:15:00,33.13,33.0,1,0.0
 09/09/2018 08:30:00,33.0,33.0,1,0.0
 09/09/2018 08:45:00,32.89,33.0,1,0.0
 09/09/2018 09:00:00,32.99,33.0,1,0.0
 09/09/2018 09:15:00,33.24,33.0,1,0.0
 09/09/2018 09:30:00,33.13,33.0,1,0.0
 09/09/2018 09:45:00,32.99,33.0,1,0.0
 09/09/2018 10:00:00,33.01,33.0,1,0.0
 09/09/2018 10:15:00,33.15,33.0,1,0.0
 09/09/2018 10:30:00,33.1,33.0,1,0.0
 09/09/2018 10:45:00,32.94,33.0,1,0.0
 09/09/2018 11:00:00,32.98,33.0,1,0.0
 09/09/2018 11:15:00,33.01,33.0,1,0.0
 09/09/2018 11:30:00,33.02,33.0,1,0.0
 09/09/2018 11:45:00,33.0,33.0,1,0.0
 09/09/2018 12:00:00,33.03,33.0,1,0.0
 09/09/2018 12:15:00,33.0,33.0,1,0.0
 09/09/2018 12:30:00,33.0,33.0,1,0.0
 09/09/2018 12:45:00,32.93,33.0,1,0.0
 09/09/2018 13:00:00,32.88,33.0,1,0.0
 09/09/2018 13:15:00,32.87,33.0,1,0.0
 09/09/2018 13:30:00,32.88,33.0,1,0.0
 09/09/2018 13:45:00,32.95,33.0,1,0.0